Regional Weather Roundup
Issued by NWS Newport/Morehead, NC

Current Version | Previous Version | Graphics & Text | Print | Product List | Glossary Off
Versions: 1 2 3 4 5 6 7 8 9 10 11 12 13 14 15 16 17 18 19 20 21 22 23 24 25 26 27 28 29 30 31 32 33 34 35 36 37 38 39 40 41 42 43 44 45 46 47 48 49 50

000
ASUS42 KMHX 280725
RWRMHX
WEATHER ROUNDUP FOR EASTERN NORTH CAROLINA
NATIONAL WEATHER SERVICE NEWPORT/MOREHEAD CITY NC
300 AM EDT SUN MAY 28 2017

NOTE: "FAIR" INDICATES FEW OR NO CLOUDS BELOW 12,000 FEET
WITH NO SIGNIFICANT WEATHER AND/OR OBSTRUCTIONS TO VISIBILITY

NCZ015>017-031-032-045>047-102-103-280800-
NORTH COAST

CITY           SKY/WX    TMP DP  RH WIND       PRES   REMARKS
EDENTON        CLEAR     73  67  81 S7        29.84F
ELIZABETH CITY CLOUDY    70  68  93 NE7       29.84F
KITTY HAWK     CLOUDY    68  66  92 CALM      29.83S
MANTEO         PTCLDY    70  64  80 SW6       29.84F

$$

NCZ045>047-081-094-103-104-280800-
CENTRAL COAST

CITY           SKY/WX    TMP DP  RH WIND       PRES   REMARKS
FRISCO         PTCLDY    74  67  78 SW6       29.86F

$$

NCZ095-097-098-100-101-280800-
SOUTHERN COAST

CITY           SKY/WX    TMP DP  RH WIND       PRES   REMARKS
BEAUFORT       CLEAR     75  74  96 SW12      29.86F
CEDAR ISLAND   NOT AVBL
JACKSONVILLE   PTCLDY    73  70  90 SW8       29.85F
PINEY ISLAND   CLOUDY   N/A N/A N/A N5        29.85F
WILMINGTON     PTCLDY    74  70  87 SW3       29.88F


$$

NCZ011>013-027>030-043-044-078>080-089-090>093-098-280800-
COASTAL PLAIN

CITY           SKY/WX    TMP DP  RH WIND       PRES   REMARKS
AHOSKIE        NOT AVBL
CLINTON        CLOUDY    72  68  88 CALM      29.86F
ELIZABETHTOWN  MOCLDY    72  68  87 S3        29.87F
GOLDSBORO      CLOUDY    73  72  96 S8        29.82F
GREENVILLE     PTCLDY    73  70  88 S3        29.86F
HAVELOCK       CLEAR     72  68  87 SW5       29.87F
KENANSVILLE    CLOUDY    70  68  94 CALM      29.86F
KINSTON        PTCLDY    73  69  87 CALM      29.85F
NEW BERN       CLEAR     71  69  93 SW6       29.86F
RICHLANDS      MOCLDY    69  68  96 S5        29.87F
ROCKY MOUNT    CLOUDY    71  69  93 S6        29.82F
WASHINGTON     PTCLDY    70  69  96 SE3       29.85F
WHITEVILLE     MOCLDY    71  67  85 CALM      29.88S

$$

AMZ130-135-150-152-154-156-158-170-250-252-270-ANZ085-086-088-633-658-670-280800-
MARINE OBSERVATIONS

STATION/POSITION TIME  TEMP    WIND        PRES    WAVE   SWELL
                       AIR SEA DIR/SP/G            HT/PER HT/PER
                 (UTC) (F)     (DEG/KT/KT) (MB)    (FT/S) (FT/S)
CHESAPEAKE LIGHT NOT AVBL
64 E VA BEACH    0650   69 64  260/ 14/ 16 1010.6    3/ 5   2/ 8
DUCK             0700   69 66   10/  5/  6 1010.0
2 E DUCK         0700      67                N/A     1/ 8
OREGON INLET     0700   71 71  250/  2/  4 1010.3
13E OREGON INLT  0648      67                N/A     2/ 5   2/ 5
HATTERAS CG      0700   75 74  180/  4/  6 1010.7
DIAMOND BUOY     0650   76 77  240/ 10/ 10 1011.5    3/ 6   3/ 6
CAPE LOOKOUT     0700   75     240/ 10/ 13 1010.9
BEAUFORT LAB     0700   75 73  240/  6/ 10 1010.5
30 SE NEW RVR IN 0708   76     250/ 12/ 19 1011.6
30 SE NEW RVR IN 0713      76                N/A     4/ 6
27 SE WRIGHTSVLE 0708   75 77  230/ 12/ 19 1010.8
5 SE WRIGHTSVLE  0708   75 75  230/  8/ 10 1011.5
225 S CAPE HAT   0650   76 77  240/ 12/ 14 1014.6    3/ 7   2/ 7
41 SE CHARLESTON 0710   76 75  220/ 14/ 16 1012.9

$$




USA.gov is the U.S. government's official web portal to all federal, state and local government web resources and services.